logo
Search for airport 
image banner adimage banner adimage banner ad
image banner ad

LOAS - Spitzerberg

Located in District Bruck An Der Leitha, Austria

ICAO - LOAS, IATA -

Data provided by Airmate  

General information

Coordinates: N48°6'6" E16°56'2"
Elevation is 623 feet MSL.
 
View others Airports in Lower Austria

Operational data

Special qualification required
Current time UTC:
Current local time:
Weather at : LZIB - Bratislava/M. R. Stefanik ( 22 km )
METAR: LZIB 150830Z VRB02KT 9999 FEW030 21/13 Q1009 NOSIG
TAF: TAF LZIB 150515Z 1506/1606 VRB02KT CAVOK BECMG 1508/1510 32012KT 9999 BKN033 TEMPO 1514/1606 5000 SHRA BKN012 SCT040TCU BKN045 PROB40 TEMPO 1514/1606 30015G25KT TSRA SCT033CB BKN040 BECMG 1516/1518 22008KT BECMG 1604/1606 31009KT
View NOTAMs / SUP AIP / TFR affecting this airport [VIEW]
Communications frequencies: [VIEW]

Runways:

RWY identifierQFULength (ft)Width (ft)SurfaceLDA (ft)
15229782GRASS
33229782GRASS

Airport contact information

Address: District Bruck An Der Leitha Austria

Other aviation service providers

Aviation club (not for profit)

Flugsportzentrum Spitzerberg

Flugsportzentrum Spitzerberg

Österreichischer Aero Club-Flugsportzentrum

Österreichischer Aero Club-Flugsportzentrum

Satellite view of LOAS